Погода Остров Голомянный

Погода Остров Голомянный : погода сейчас, прогноз погоды и архив. Всё, что Вы хотите узнать о погоде Остров Голомянный!

Хотите узнать прогноз погоды Остров Голомянный? Тогда Вам сюда: Погода Остров Голомянный

Поиск расширенной информации на нашем сайте:

Другие новости

Новости СМИ2

Главная страница сайта

Новости сайта

03.07.2017

Напоминаем, что на нашем специализированном сайте Метеоцентр.Азия вы можете получить высокодетализированные автоматические прогнозы погоды по пунктам России, СНГ и мира в авиационном формате (включающие направление и скорость ветра, видимость, явления погоды, количество и форму облачности, нижнюю и верхнюю границу облачности).


Погода Остров Голомянный - сегодня

Время (UTC), дата Ветер
(°,м/с) 
Видим.   Явления Облачность Т
(°С)
Тd
(°С)
f(%) Тe
(°С)
Pmin
(гПа)
dP
(гПа)
Po
(мм)
O2
(г/м3)
Тmin Tmax R s Состояние
почвы
09 20.04.18 110 (В) 10 км  слаб. снег  10/0 средняя 
[As op]
-13 -14.7 87 -18  1005.8  754  320           
15 20.04.18 120 (ЮВ) 20000 м  слаб. снег  10/0 средняя 
[As op]
-14.9 -16.5 88 -20  1006  0.1  754  323           
18 20.04.18 160 (Ю) 4000 м  слаб. снег  10/0 средняя 
[As op]
-15.3 -17 87 -20  1006.1  0.1  754  323           
21 20.04.18 170 (Ю) 10 км  слаб. снег  10/0 средняя 
[As op]
-13.8 -15.4 88 -18  1006.8  0.7  754  321           
03 21.04.18 140 (ЮВ) 4000 м  слаб. снег  10/0 средняя 
[As op]
-15.3 -17.3 85 -22  1008.2  0.8  755  324           
06 21.04.18 140 (ЮВ) 20000 м  позёмок{снег}  10/0 средняя, верхняя 
[Ac trans|Ci fib]
-16.5 -18.6 84 -23  1008.7  0.5  756  326           
09 21.04.18 140 (ЮВ) 20000 м  позёмок  4/0 средняя, верхняя 
[Ac trans|Ci fib]
-16.5 -18.6 84 -23  1008.8  0.1  756  326           
15 21.04.18 130 (ЮВ) 20000 м    3/0 верхняя 
[Ci fib]
-17.4 -19.4 84 -21  1008.3  -0.5  755  327           
18 21.04.18 120 (ЮВ) 20000 м    3/0 верхняя 
[Ci fib]
-18.4 -20.4 84 -25  1007.6  -0.8  755  328           
21 21.04.18 110 (В) 20000 м    1/0 верхняя 
[Ci fib]
-19.6 -21.8 83 -25  1007  -0.6  754  329           
03 22.04.18 060 (СВ) 20000 м    ясно 
-18.4 -20.5 84 -21  1004.8  -1.3  753  327           
06 22.04.18 040 (СВ) 20000 м    ясно 
-14.7 -16.7 85 -19  1003.1  -1.7  752  321           
09 22.04.18 040 (СВ) 20000 м    ясно 
-13.7 -15.8 84 -18  1002  -1  751  320           
15 22.04.18 060 (СВ) 20000 м    3/0 средняя, верхняя 
[Ac trans|Ci fib]
-17.3 -19.4 84 -23  999.9  -1  749  324           
18 22.04.18 070 (В) 20000 м  позёмок  3/0 средняя, верхняя 
[Ac trans|Ci fib]
-15.7 -17.9 83 -23  998.9  -1  748  321           
21 22.04.18 050 (СВ) 20000 м  позёмок  10/0 средняя, верхняя 
[Ac trans|Ci fib]
-16 -18.1 84 -22  998.4  -0.5  748  322           
03 23.04.18 050 (СВ) 20000 м  позёмок  10/0 средняя, верхняя 
[Ac trans|Ci fib]
-13.7 -16.1 82 -20  997.4  -0.5  747  318           
06 23.04.18 040 (СВ) 20000 м  позёмок  10/0 верхняя 
[Cs]
-12.5 -14.9 82 -18  997.7  0.4  748  317           
09 23.04.18 030 (СВ) 20000 м  позёмок  3/0 верхняя 
[Ci fib]
-11.5 -14.1 81 -17  998.7  0.9  748  316           
15 23.04.18 070 (В) 20000 м    4/0 средняя, верхняя 
[Ac trans|Ci fib]
-12.4 -14.9 82 -14  1000.2  0.6  749  318           
18 23.04.18 050 (СВ) 20000 м    4/0 средняя, верхняя 
[Ac trans|Ci fib]
-13.7 -15.4 87 -14  1000.8  0.6  750  319           
21 23.04.18 320 (СЗ) 20000 м    3/0 средняя, верхняя 
[Ac trans|Ci fib]
-14.8 -16.5 87 -18  1001.8  0.9  751  321           
03 24.04.18 320 (СЗ) 20000 м    10/10 500 м 
[Sc]
-13.3 -14.8 88 -19  1004.1  1.5  752  320           
06 24.04.18 290 (З) 20000 м    10/10 150 м 
[St]
-12.8 -14.3 89 -17  1005.6  1.5  753  320           
15 24.04.18 210 (ЮЗ) 20000 м  {ливн. осадки}  10/0 средняя, верхняя 
[Ac trans|Ci fib]
-16.3 -18.1 86 -19  1009.1  0.5  756  325           
Время (UTC), дата Ветер
(°,м/с) 
Видим.   Явления Облачность Т
(°С)
Тd
(°С)
f(%) Тe
(°С)
Pmin
(гПа)
dP
(гПа)
Po
(мм)
O2
(г/м3)
Тmin Tmax R s Состояние
почвы

Для получения пояснительной информации подведите курсор к названию столбца.

ПОГОДА Остров Голомянный - архив

Всё, что Вы хотите узнать о погоде Остров Голомянный - удобно и подробно!

Выберите нужную дату (начиная с 1 января 2015* года) и нажмите кнопку "Найти".
Будут отображены архивные сводки погоды по пункту Остров Голомянный, начиная с указанной даты.


Отображать данные в формате CSV (для использования в таблицах Excel)


Внимание! Наш архив погоды предназначен исключительно для личного некоммерческого использования в познавательных целях. Если Вам необходимы официальные справки о состоянии погоды (для производственных, юридических, коммерческих и т.п. целей), обращайтесь в органы Росгидромета.

*Примечание: данная дата относится к архиву по метеостанциям СССР (Россия, СНГ, Балтия).
Архив по метеостанциям Зарубежной Европы и Азии (кроме Китая) хранится 10 дней, по другим регионам земного шара (Китай, Африка, Америка, Австралия, Океания) - 1 день.

Остров Голомянный - район местоположения метеостанции


Название, широта, долгота, высота метеостанции:
Остров Голомянный 79.6°ш. 90.6°д. 8 м над ур. моря [Российская Федерация]

Дополнительная информация

В oтличие oт бoльшинства пoгoдных сайтoв мы публикуем пoдрoбную метеoинфoрмацию в детальнoм прoфессиoнальнoм фoрмате.

Характеристики температуры и влажнoсти вoздуха измеряются на высoте 2 м в тени вдали oт зданий и деревьев.
Скoрoсть ветра измеряется на высoте 10 м (на урoвне рoста челoвека скoрoсть ветра ниже в 1.5-2 раза). Если метеoстанция нахoдится в гoрoде или в лесу, тo скoрoсть ветра занижена на 2-4 м/с пo сравнению с oткрытым местoм. Скoрoсть ветра над акватoриями крупных рек и oзёр, а также на вершинах хoлмoв на 2-5 м/с выше, чем в oбычных услoвиях.
Атмoсфернoе давление в разных тoчках местнoсти мoжет значительнo oтличаться oт давления на метеoстанции, в зависимoсти oт услoвий рельефа (при пoдъёме на 10 м давление пoнижается примернo на 1 мм рт.ст.).